Regional Weather Roundup
Issued by NWS Midland/Odessa, TX

Skip options and go directly to product.
Home | Oldest Version | Next Version | Current Version | All | Text Only | Save Text | Print | Product List | Glossary On

Skip product version selection by date and time.   
004
ASUS44 KMAF 232001
RWRMAF
MIDLAND AREA WEATHER ROUNDUP
NATIONAL WEATHER SERVICE MIDLAND TX
300 PM CDT THU JUN 23 2016

...IN SOUTHWEST TEXAS AND SOUTHEAST NEW MEXICO...

CITY           SKY/WX    TMP DP  RH WIND       PRES   REMARKS
ALPINE         MOSUNNY   96  49  20 NE9       30.16F
ANDREWS        FAIR      96  57  26 SE18      30.05F
ARTESIA        SUNNY     99  52  20 SE14G25   30.03F
BIG SPRING     SUNNY     90  60  35 SE16G23   30.06F
CARLSBAD       SUNNY    100  51  19 S15G22    30.00F
DRYDEN           N/A     97  61  30 SE18G26   29.98F
FORT STOCKTON  SUNNY     96  60  30 SE15G26   30.01F
GUAD PASS      SUNNY     91  48  22 E16G23    30.20F
HOBBS          SUNNY     95  50  21 SE16G24   30.06F
MARFA          MOSUNNY  N/A N/A N/A SE13      30.14F
MIDLAND AIRPK  SUNNY     95  57  27 S16       30.04F
MIDLAND INTL   SUNNY     96  58  27 SE17G25   30.03F
ODESSA         SUNNY     95  58  28 S15G24    30.05F
PECOS          SUNNY    102  52  19 E15G21    29.97F
PRESIDIO       FAIR     103  52  17 NE8       29.95F HX 101
SEMINOLE       SUNNY     96  50  20 SE14G25   30.06F
SNYDER           N/A     90  65  43 SE15G21   30.06S
WINK           SUNNY     98  56  24 SE20G26   29.99F
$$
...OTHER STATIONS IN TEXAS...

CITY           SKY/WX    TMP DP  RH WIND       PRES   REMARKS
ABILENE        SUNNY     93  64  38 S14G23    30.03F
AMARILLO       SUNNY     95  56  26 S10       30.08F
AUSTIN         MOSUNNY   92  70  48 S7G20     30.02F
BROWNSVILLE    MOSUNNY   91  72  53 SE14G24   30.00F
CORPUS CHRISTI PTSUNNY   92  72  51 SE17      30.01F
DALLAS FTW     MOSUNNY   95  69  42 S16G24    29.99F HX 100
DEL RIO        SUNNY     95  63  34 SE22G29   29.97F
EL PASO        MOSUNNY   99  45  15 CALM      30.03F
HOUSTON INT    PTSUNNY   90  71  53 S9        30.03F
LUBBOCK        MOSUNNY   96  57  27 SE15G26   30.07F
SAN ANGELO     SUNNY     95  58  28 SE12G18   30.02F
SAN ANTONIO    MOSUNNY   89  69  51 SE12G17   30.04F
WACO           SUNNY     94  69  44 S13       30.01F
WICHITA FALLS  NOT AVBL
$$
...OTHER LOCATIONS IN NEW MEXICO...

CITY           SKY/WX    TMP DP  RH WIND       PRES   REMARKS
ALAMAGORDO     MOSUNNY   99  46  16 SW8       30.05F
ALBUQUERQUE    MOSUNNY   94  43  17 E6        30.15F
CANNON AFB     NOT AVBL
CLOVIS         MOSUNNY   93  55  27 SE9       30.11F
HOLLOMAN AFB   NOT AVBL
ROSWELL        SUNNY     97  49  19 SE15G23   30.04F
RUIDOSO          N/A     77  46  33 S9        30.32S
SANTA FE       SUNNY     90  42  18 VRB3      30.21F
TRUTH OR CONSE MOSUNNY   98  45  16 E10       30.09F
TUCUMCARI      SUNNY     97  49  19 CALM      30.05F
$$

USA.gov is the U.S. government's official web portal to all federal, state and local government web resources and services.